Regional Weather Roundup
Issued by NWS

Home | Current Version | Previous Version | Graphics & Text | Print | Product List | Glossary On
Versions: 1 2 3 4 5 6 7 8 9 10 11 12 13 14 15 16 17 18 19 20 21 22 23 24 25 26 27 28 29 30 31 32 33 34 35 36 37 38 39 40 41 42 43 44 45 46 47 48 49 50
000
ASUS43 KTOP 201559
RWRKS

WEATHER ROUNDUP FOR KANSAS
NATIONAL WEATHER SERVICE GOODLAND KS
1000 AM CST MON NOV 20 2017

NOTE:  "FAIR" INDICATES FEW OR NO CLOUDS BELOW 12,000 FEET WITH NO
SIGNIFICANT WEATHER AND/OR OBSTRUCTIONS TO VISIBILITY.

KSZ001>006-013>018-027>032-041>047-201700-
NORTHWEST KANSAS

CITY           SKY/WX    TMP DP  RH WIND       PRES   REMARKS
GOODLAND       SUNNY     59  11  15 W12       29.80F
HAYS           SUNNY     41  23  48 SW8       29.81F
HILL CITY      CLOUDY    44  27  51 SW5       29.76F
RUSSELL        SUNNY     43  23  45 SW17      29.80F
$$

KSZ061>065-074>080-084>089-201700-
SOUTHWEST KANSAS

CITY           SKY/WX    TMP DP  RH WIND       PRES   REMARKS
DODGE CITY     SUNNY     43  19  38 SW12      29.85F
GARDEN CITY    SUNNY     48  21  34 W9        29.84F
GREAT BEND     SUNNY     45  21  38 SW16      29.84F
LIBERAL        SUNNY     46  18  32 SW8       29.89F
$$

KSZ066>073-081>083-090>101-201700-
SOUTHEAST KANSAS

CITY           SKY/WX    TMP DP  RH WIND       PRES   REMARKS
CHANUTE        SUNNY     52  31  44 S21G29    29.99F
COFFEYVILLE    SUNNY     52  31  44 S18G28    30.03F
HUTCHINSON     SUNNY     51  23  33 SW23G32   29.89S
MEDICINE LODGE   N/A     51  22  31 SW18G29   29.91F
NEWTON         SUNNY     50  26  39 SW25G35   29.90R
PARSONS        SUNNY     52  31  44 S14G23    30.02F
WICHITA INTL   MOSUNNY   51  28  41 S23G33    29.91F
WICHITA JABRA  SUNNY     51  27  39 S24G33    29.91S
WICHITA MCCONL SUNNY     52  25  35 SW23G38   29.91F
WINFIELD       SUNNY     51  30  44 S22G33    29.98F
$$

KSZ007>012-019>026-033>040-048>060-102>105-201700-
NORTHEAST KANSAS

CITY           SKY/WX    TMP DP  RH WIND       PRES   REMARKS
CONCORDIA      SUNNY     46  23  40 SW17      29.80F
EMPORIA        LGT RAIN  51  28  41 S18       29.91F
LAWRENCE       SUNNY     53  29  39 S12G23    29.91F
MANHATTAN      SUNNY     51  25  36 SW22G31   29.85F
OLATHE IND     SUNNY     53  29  39 S21G32    29.92F
OLATHE EXE     SUNNY     50  30  46 SW17G24   29.92F
SALINA         SUNNY     51  24  34 SW21      29.86F
TOPEKA BILLARD SUNNY     52  28  39 S12       29.89F
TOPEKA FORBES  SUNNY     53  28  38 S21G28    29.88F
$$




USA.gov is the U.S. government's official web portal to all federal, state and local government web resources and services.